SCP
0 0 0 0 0 0 0 0 0 -0 -0 -0 -0 -0 -0 -0 -0 -0 -0 0 0 -0 0 0 0 0 0 0 0 -0 -0 -0 0 0 0 0 0 0 0 0 0 -0 0 0 0
0 0 0 0 0 0 0 0 0 0 0 -0 -0 -0 -0 -0 0 -0 0 -0 -0 0 0 -0 -0 0 -0 0 0 -0 -0 0 0 0 0 0 0 0 0 0 0 0 0 -0 0
0 0 0 0 0 0 0 0 0 0 0 0 -0 -0 -0 0 0 0 -0 -0 -0 0 0 0 -0 -0 -0 -0 -0 -0 0 0 0 0 0 0 0 0 0 0 0 0 0 0 0
0 0 0 0 0 0 0 0 0 0 0 0 0 -0 0 0 0 0 -0 -0 0 0 0 -0 -0 -0 -0 -0 -0 -0 0 0 0 0 0 0 0 0 0 0 0 0 0 0 0
0 0 0 0 0 0 0 0 0 0 0 0 0 0 0 0 0 0 -0 0 0 0 0 -0 -0 -0 0 0 0 0 0 0 0 0 0 -0 -0 -0 0 0 0 0 0 0 0
0 0 0 0 0 0 0 0 0 0 0 0 0 0 0 0 0 0 0 0 0 0 0 0 0 0 0 0 0 0 0 0 0 -0 -0 -0 0 0 0 0 0 0 0 0 0
0 0 0 0 0 0 0 0 0 0 0 0 0 0 0 0 0 0 0 0 0 0 0 0 0 0 0 0 0 0 -0 0 0 0 0 0 0 0 0 0 0 0 0 0 0
0 0 0 0 0 0 0 0 0 0 0 0 0 0 0 0 0 0 0 0 0 0 0 0 0 0 0 0 0 0 0 0 0 0 0 0 0 0 0 0 0 0 0 0 0
0 0 0 0 0 0 0 0 0 0 0 0 0 0 0 0 0 0 0 0 0 0 0 0 0 0 0 0 0 0 0 0 0 0 0 0 0 0 0 0 0 0 0 0 0
0 0 0 0 0 0 0 0 0 0 0 0 0 0 0 0 0 0 0 0 0 0 0 0 0 0 0 0 0 0 0 0 0 0 0 0 0 0 0 0 0 0 0 0 0
0 0 0 0 0 0 0 0 0 0 0 0 0 0 0 0 0 0 0 0 0 0 0 0 0 0 0 0 0 0 0 0 0 0 0 0 0 0 0 0 0 0 0 0 0
0 0 0 0 0 0 0 0 0 0 0 0 0 0 0 0 0 0 0 0 0 0 0 0 0 0 0 0 0 0 0 0 0 0 0 0 0 0 0 0 0 0 0 0 0
0 0 0 0 0 0 0 0 0 0 0 0 0 0 0 0 0 0 0 0 0 0 0 0 0 0 0 0 0 0 0 0 0 0 0 0 0 0 0 0 0 0 0 0 0
0 0 0 0 0 0 0 0 0 0 0 0 0 0 0 0 0 0 0 0 0 0 0 0 0 0 0 0 0 0 0 0 0 0 0 0 0 0 0 0 0 0 0 0 0
0 0 0 0 0 0 0 0 0 0 0 0 0 0 0 0 0 0 0 0 0 0 0 0 0 0 0 0 0 0 0 0 0 0 0 0 0 0 0 0 0 0 0 0 0
0 0 0 0 0 0 0 0 0 0 0 0 0 0 0 0 0 0 0 0 0 0 0 0 0 0 0 0 0 0 0 0 0 0 0 0 0 0 0 0 0 0 0 0 0
0 0 0 0 0 0 0 0 0 0 0 0 0 0 0 0 0 0 0 0 0 0 0 0 0 0 0 0 0 0 0 0 0 0 0 0 0 0 0 0 0 0 0 0 0
0 0 0 0 0 0 0 0 0 0 0 0 0 0 0 0 0 0 0 0 0 0 0 0 0 0 0 0 0 0 0 0 0 0 0 0 0 0 0 0 0 0 0 0 0
0 0 0 0 0 0 0 0 0 0 0 0 0 0 0 0 0 0 0 0 0 0 0 0 0 0 0 0 0 0 0 0 0 0 0 0 0 0 0 0 0 0 0 0 0
0 0 0 0 0 0 0 0 0 0 0 0 0 0 0 0 0 0 0 0 0 0 0 0 0 0 0 0 0 0 0 0 0 0 0 0 0 0 0 0 0 0 0 0 0
0 0 0 0 0 0 0 0 0 0 0 0 0 0 0 0 0 0 0 0 0 0 0 0 0 0 0 0 0 0 0 0 0 0 0 0 0 0 0 0 0 0 0 0 0
0 0 0 0 0 0 0 0 0 0 0 0 0 0 0 0 0 0 0 0 0 0 0 0 0 0 0 0 0 0 0 0 0 0 0 0 0 0 0 0 0 0 0 0 0
0 0 0 0 0 0 0 0 0 0 0 0 0 0 0 0 0 0 0 0 0 0 0 0 0 0 0 0 0 0 0 0 0 0 0 0 0 0 0 0 0 0 0 0 0
0 0 0 0 0 0 0 0 0 0 0 0 0 0 0 0 0 0 0 0 0 0 0 0 0 0 0 0 0 0 0 0 0 0 0 0 0 0 0 0 0 0 0 0 0
0 0 0 0 0 0 0 0 0 0 0 0 0 0 0 0 0 0 0 0 0 0 0 0 0 0 0 0 0 0 0 0 0 0 0 0 0 0 0 0 0 0 0 0 0
0 0 0 0 0 0 0 0 0 0 0 0 0 0 0 0 0 0 0 0 0 0 0 0 0 0 0 0 0 0 0 0 0 0 0 0 0 0 0 0 0 0 0 0 0
0 0 0 0 0 0 0 0 0 0 0 0 0 0 0 0 0 0 0 0 0 0 0 0 0 0 0 0 0 0 0 0 0 0 0 0 -0 0 0 0 0 0 0 0 0
Wind_Speed_500mb
14 14 16 16 17 19 22 25 25 26 23 19 14 4 5 12 13 5 7 6 12 14 20 23 20 20 17 17 16 8 9 6 12 12 9 11 6 11 15 23 27 13 13 22 33
16 17 17 18 19 18 20 23 24 24 22 19 15 7 1 5 5 16 10 7 11 14 17 22 20 13 12 10 12 13 8 10 6 11 9 13 9 14 7 9 10 9 13 22 33
19 19 19 20 20 21 19 20 24 22 21 19 16 11 2 1 2 12 8 3 8 11 14 19 21 12 14 15 17 10 7 10 4 17 24 14 11 8 24 6 4 6 21 31 39
20 21 21 21 21 21 21 19 21 21 17 18 17 11 6 2 4 6 5 3 8 11 12 16 15 11 12 10 9 14 8 4 16 16 14 10 16 11 3 9 7 9 21 27 40
20 21 23 22 21 20 21 20 20 21 17 14 14 10 3 3 6 4 4 5 8 11 11 12 15 15 14 16 13 13 7 14 15 14 19 16 10 13 16 14 6 9 18 32 41
23 22 21 23 21 22 21 20 21 19 17 14 11 9 1 3 4 4 6 7 9 10 11 13 11 32 29 12 10 18 29 22 13 14 15 16 11 2 11 8 1 12 24 35 44
25 26 25 22 21 21 22 20 20 19 15 11 8 5 1 8 4 5 8 10 14 14 24 34 30 6 21 15 30 30 13 9 7 7 6 17 6 6 14 10 5 16 26 36 46
24 27 26 23 21 19 21 20 19 15 12 8 5 3 4 9 7 8 12 18 22 23 27 27 28 34 15 46 11 10 9 8 4 7 4 10 8 7 11 11 5 18 30 38 47
27 24 25 26 20 19 19 19 15 13 10 5 3 2 3 8 7 10 14 20 23 21 24 20 10 18 18 12 9 10 6 6 3 4 6 8 5 10 9 6 6 20 30 41 50
32 27 24 24 24 20 20 17 14 13 12 7 2 2 4 6 7 9 15 20 11 21 16 6 11 9 7 7 10 13 9 4 8 9 6 7 8 9 10 5 8 19 29 41 50
35 30 25 23 28 24 20 13 8 7 6 4 3 7 7 7 10 8 15 15 18 7 6 8 9 8 12 5 5 14 11 8 1 4 7 11 9 15 17 5 7 20 31 39 47
42 33 29 24 21 21 17 9 7 5 11 11 8 7 11 12 7 7 16 8 7 7 1 11 4 6 11 7 11 9 9 4 2 2 2 3 13 10 18 5 6 16 26 36 44
40 38 32 23 20 15 12 7 5 8 8 7 10 7 7 11 5 10 12 11 9 7 3 10 8 10 7 6 9 5 9 9 3 2 5 9 9 6 7 12 6 12 19 28 36
40 48 38 24 20 15 6 6 2 2 8 6 3 2 7 11 4 8 10 7 9 9 7 10 5 8 9 5 5 7 4 10 10 6 5 5 8 8 8 9 7 7 16 26 32
45 53 43 30 13 13 9 10 4 2 6 5 3 2 6 4 13 6 6 5 11 8 7 7 10 8 5 5 1 7 6 8 5 8 6 1 4 7 8 11 12 5 9 20 28
40 57 47 37 32 18 19 19 6 7 14 1 2 4 6 5 4 7 3 11 16 9 12 6 0 4 7 6 3 18 10 10 7 5 3 2 8 9 10 13 11 10 8 16 23
30 60 58 46 28 25 25 21 5 9 6 5 6 8 4 5 4 1 7 5 8 9 2 4 2 2 10 13 11 4 9 3 8 4 9 6 3 13 10 9 16 25 17 16 21
23 61 62 54 36 34 33 7 11 8 11 3 7 8 9 10 3 4 9 6 5 2 5 11 6 13 6 4 11 9 4 9 13 6 4 6 11 7 6 20 29 26 22 20 21
32 54 67 59 48 48 32 7 15 15 12 18 6 7 7 5 7 5 10 10 16 22 13 9 1 4 4 1 1 10 8 5 13 5 5 8 9 2 8 10 24 27 25 23 24
26 60 62 63 61 54 9 12 8 7 15 7 14 6 13 12 9 10 15 9 11 14 11 7 7 2 2 3 5 4 6 6 4 4 8 8 10 9 23 25 19 25 35 31 27
41 27 23 52 62 31 9 10 11 16 16 13 13 10 8 13 13 10 7 4 6 10 15 12 6 2 4 14 15 7 6 2 3 7 9 2 11 5 29 34 34 40 48 42 36
40 5 40 63 11 13 6 12 10 10 12 6 7 3 13 14 11 8 13 5 20 29 17 11 8 8 10 3 3 5 12 11 8 10 6 3 11 3 9 38 46 52 55 47 40
19 15 55 73 11 11 7 6 6 6 9 13 14 11 5 14 8 11 9 1 16 14 14 14 4 6 4 3 5 11 11 8 8 5 13 11 9 6 10 27 49 61 59 54 48
17 8 13 39 20 11 14 13 12 13 7 6 7 9 10 8 6 11 7 1 7 5 4 5 6 10 15 8 10 11 12 16 10 7 9 15 5 9 11 22 38 59 67 63 56
26 15 23 13 25 12 22 23 29 16 9 18 4 13 14 10 8 12 8 4 5 9 5 5 9 7 5 5 7 9 10 28 32 33 18 12 26 21 30 35 66 72 71 69 63
18 12 21 9 23 37 22 28 42 21 23 13 16 32 20 13 17 17 17 8 8 6 11 4 5 4 5 5 7 9 19 22 36 36 33 26 25 11 43 43 45 61 75 77 75
55 31 19 22 19 29 35 43 42 28 30 27 41 13 26 36 5 7 19 26 9 19 17 13 11 6 9 6 7 14 34 42 20 20 31 31 43 15 16 49 68 76 91 90 85
Wind_Direction_500mb
332 330 330 333 337 342 342 343 350 353 355 351 1 10 60 50 46 70 69 85 120 118 121 131 124 119 107 81 68 89 67 137 178 160 149 139 111 67 79 80 64 70 52 358 349
338 333 331 329 331 337 338 340 341 350 352 351 351 346 65 70 50 60 56 103 127 124 130 147 141 133 81 61 35 63 86 178 175 156 147 138 111 123 113 68 62 56 18 357 353
341 335 332 328 325 328 333 338 332 343 347 350 348 351 344 107 107 19 27 68 139 139 131 152 150 128 74 46 25 41 125 167 96 122 129 123 104 101 122 48 67 13 358 356 354
344 338 331 328 322 323 323 331 328 332 340 346 351 342 339 142 182 355 28 118 146 157 145 144 149 105 71 74 57 92 66 112 136 103 104 106 121 93 113 128 126 33 359 352 358
341 340 332 327 321 319 319 322 322 323 331 329 346 345 351 122 78 28 62 139 155 164 169 163 157 121 107 106 91 79 125 94 130 116 105 123 109 129 119 136 133 6 357 5 0
332 333 333 327 324 319 317 317 316 319 323 328 331 351 322 163 44 50 65 120 163 166 169 173 152 120 99 76 79 120 111 109 118 133 130 122 136 68 171 167 200 356 7 7 1
321 326 331 329 324 321 318 316 313 312 319 326 321 342 81 162 159 106 91 116 128 126 131 123 125 126 109 97 112 114 82 82 67 135 135 142 142 144 170 193 317 0 5 4 2
313 316 324 327 326 325 321 317 313 308 312 325 308 347 132 155 130 117 116 110 124 127 122 113 107 102 90 121 80 76 67 124 244 154 159 152 246 176 188 222 322 4 5 0 3
310 305 315 321 332 337 326 320 310 311 301 318 276 171 137 156 152 135 143 130 124 128 119 114 108 89 117 99 61 11 167 156 198 180 153 165 235 177 175 189 15 10 6 4 2
308 302 300 311 320 342 336 326 304 295 287 278 205 176 168 188 151 141 141 148 133 129 117 110 81 81 50 86 200 186 168 165 184 200 168 194 233 188 178 161 33 11 9 8 9
292 292 293 301 308 318 324 343 320 279 291 214 152 148 139 163 161 150 156 147 138 128 89 33 86 177 186 149 114 125 120 135 162 193 179 220 235 204 180 130 35 17 12 10 11
280 279 283 293 293 307 331 346 317 281 302 249 218 192 156 164 143 158 167 169 140 117 102 36 145 149 107 91 100 92 112 112 15 10 229 306 264 194 179 164 64 26 19 13 10
274 267 271 283 287 292 309 309 294 297 270 238 212 196 159 178 178 152 179 146 94 104 34 142 156 148 111 120 105 49 143 172 149 99 43 342 285 152 189 149 120 44 30 24 19
268 261 259 264 279 266 227 239 251 352 41 239 191 212 171 162 78 135 149 149 49 140 114 86 161 139 117 138 122 165 165 123 122 108 222 33 277 225 193 191 187 41 30 26 25
281 260 248 242 239 216 179 168 160 73 282 23 109 148 130 149 131 58 128 116 118 115 125 183 149 138 127 112 5 160 128 104 87 91 51 93 79 269 133 222 207 140 53 40 38
275 263 244 233 225 210 165 146 117 43 243 204 104 135 92 44 58 107 101 87 109 91 40 87 79 58 126 82 71 144 82 56 58 88 27 129 136 262 189 197 148 159 100 57 55
270 260 244 235 228 195 164 141 68 231 348 241 173 160 117 140 101 77 129 113 126 94 177 21 2 58 134 84 4 82 110 344 347 13 220 152 75 255 190 174 155 160 134 88 74
278 254 236 232 208 184 165 77 192 233 212 143 121 114 177 156 316 127 130 165 93 109 126 154 258 179 181 204 176 183 192 167 208 207 228 130 230 263 150 140 139 145 135 116 100
310 233 222 223 194 178 163 199 206 199 151 151 71 130 201 187 157 128 195 205 172 178 175 152 167 346 34 115 160 184 199 134 104 29 48 213 266 259 131 151 159 160 157 144 123
240 214 209 209 186 180 125 263 228 191 130 149 189 151 171 186 154 181 182 201 195 166 137 217 103 317 226 64 20 188 152 88 8 176 252 268 273 228 196 195 186 180 179 165 150
226 199 215 197 178 160 190 222 250 208 159 163 206 148 186 179 175 186 195 259 136 144 162 164 173 138 139 204 181 153 193 185 146 168 179 225 256 207 194 187 183 187 183 174 166
220 198 182 179 148 192 192 176 246 183 186 142 160 164 175 164 167 215 211 228 161 150 174 208 110 165 203 279 230 195 196 178 146 212 235 157 270 329 211 182 178 183 184 179 173
213 152 170 176 177 205 144 259 229 171 182 185 184 189 145 173 201 195 180 88 168 174 168 186 209 87 2 358 334 220 196 182 129 106 204 151 255 27 118 156 181 179 184 186 181
203 153 164 204 233 204 168 179 205 211 196 181 152 147 133 174 271 168 149 82 156 195 301 134 174 183 195 169 135 198 196 183 167 164 169 220 214 217 186 182 183 188 186 189 189
221 203 183 186 224 222 178 174 187 197 189 195 226 219 161 163 162 173 130 124 49 170 178 180 220 179 235 160 174 196 180 192 206 218 204 198 218 208 194 194 196 191 189 191 194
213 185 183 239 191 197 201 205 193 176 159 209 224 196 184 186 199 182 138 172 182 162 178 192 220 100 297 326 250 250 236 201 215 230 245 243 256 182 204 190 183 189 192 196 196
234 218 198 197 176 186 210 210 207 159 208 198 206 126 193 221 136 156 125 157 169 171 178 155 142 118 262 5 330 289 226 211 203 210 210 218 232 168 176 183 192 193 198 200 199
Wind_Speed_850mb
14 14 16 16 17 19 22 25 25 26 23 19 14 4 5 12 13 5 7 6 12 14 20 23 20 20 17 17 16 8 9 6 12 12 9 11 6 11 15 23 27 13 13 22 33
16 17 17 18 19 18 20 23 24 24 22 19 15 7 1 5 5 16 10 7 11 14 17 22 20 13 12 10 12 13 8 10 6 11 9 13 9 14 7 9 10 9 13 22 33
19 19 19 20 20 21 19 20 24 22 21 19 16 11 2 1 2 12 8 3 8 11 14 19 21 12 14 15 17 10 7 10 4 17 24 14 11 8 24 6 4 6 21 31 39
20 21 21 21 21 21 21 19 21 21 17 18 17 11 6 2 4 6 5 3 8 11 12 16 15 11 12 10 9 14 8 4 16 16 14 10 16 11 3 9 7 9 21 27 40
20 21 23 22 21 20 21 20 20 21 17 14 14 10 3 3 6 4 4 5 8 11 11 12 15 15 14 16 13 13 7 14 15 14 19 16 10 13 16 14 6 9 18 32 41
23 22 21 23 21 22 21 20 21 19 17 14 11 9 1 3 4 4 6 7 9 10 11 13 11 32 29 12 10 18 29 22 13 14 15 16 11 2 11 8 1 12 24 35 44
25 26 25 22 21 21 22 20 20 19 15 11 8 5 1 8 4 5 8 10 14 14 24 34 30 6 21 15 30 30 13 9 7 7 6 17 6 6 14 10 5 16 26 36 46
24 27 26 23 21 19 21 20 19 15 12 8 5 3 4 9 7 8 12 18 22 23 27 27 28 34 15 46 11 10 9 8 4 7 4 10 8 7 11 11 5 18 30 38 47
27 24 25 26 20 19 19 19 15 13 10 5 3 2 3 8 7 10 14 20 23 21 24 20 10 18 18 12 9 10 6 6 3 4 6 8 5 10 9 6 6 20 30 41 50
32 27 24 24 24 20 20 17 14 13 12 7 2 2 4 6 7 9 15 20 11 21 16 6 11 9 7 7 10 13 9 4 8 9 6 7 8 9 10 5 8 19 29 41 50
35 30 25 23 28 24 20 13 8 7 6 4 3 7 7 7 10 8 15 15 18 7 6 8 9 8 12 5 5 14 11 8 1 4 7 11 9 15 17 5 7 20 31 39 47
42 33 29 24 21 21 17 9 7 5 11 11 8 7 11 12 7 7 16 8 7 7 1 11 4 6 11 7 11 9 9 4 2 2 2 3 13 10 18 5 6 16 26 36 44
40 38 32 23 20 15 12 7 5 8 8 7 10 7 7 11 5 10 12 11 9 7 3 10 8 10 7 6 9 5 9 9 3 2 5 9 9 6 7 12 6 12 19 28 36
40 48 38 24 20 15 6 6 2 2 8 6 3 2 7 11 4 8 10 7 9 9 7 10 5 8 9 5 5 7 4 10 10 6 5 5 8 8 8 9 7 7 16 26 32
45 53 43 30 13 13 9 10 4 2 6 5 3 2 6 4 13 6 6 5 11 8 7 7 10 8 5 5 1 7 6 8 5 8 6 1 4 7 8 11 12 5 9 20 28
40 57 47 37 32 18 19 19 6 7 14 1 2 4 6 5 4 7 3 11 16 9 12 6 0 4 7 6 3 18 10 10 7 5 3 2 8 9 10 13 11 10 8 16 23
30 60 58 46 28 25 25 21 5 9 6 5 6 8 4 5 4 1 7 5 8 9 2 4 2 2 10 13 11 4 9 3 8 4 9 6 3 13 10 9 16 25 17 16 21
23 61 62 54 36 34 33 7 11 8 11 3 7 8 9 10 3 4 9 6 5 2 5 11 6 13 6 4 11 9 4 9 13 6 4 6 11 7 6 20 29 26 22 20 21
32 54 67 59 48 48 32 7 15 15 12 18 6 7 7 5 7 5 10 10 16 22 13 9 1 4 4 1 1 10 8 5 13 5 5 8 9 2 8 10 24 27 25 23 24
26 60 62 63 61 54 9 12 8 7 15 7 14 6 13 12 9 10 15 9 11 14 11 7 7 2 2 3 5 4 6 6 4 4 8 8 10 9 23 25 19 25 35 31 27
41 27 23 52 62 31 9 10 11 16 16 13 13 10 8 13 13 10 7 4 6 10 15 12 6 2 4 14 15 7 6 2 3 7 9 2 11 5 29 34 34 40 48 42 36
40 5 40 63 11 13 6 12 10 10 12 6 7 3 13 14 11 8 13 5 20 29 17 11 8 8 10 3 3 5 12 11 8 10 6 3 11 3 9 38 46 52 55 47 40
19 15 55 73 11 11 7 6 6 6 9 13 14 11 5 14 8 11 9 1 16 14 14 14 4 6 4 3 5 11 11 8 8 5 13 11 9 6 10 27 49 61 59 54 48
17 8 13 39 20 11 14 13 12 13 7 6 7 9 10 8 6 11 7 1 7 5 4 5 6 10 15 8 10 11 12 16 10 7 9 15 5 9 11 22 38 59 67 63 56
26 15 23 13 25 12 22 23 29 16 9 18 4 13 14 10 8 12 8 4 5 9 5 5 9 7 5 5 7 9 10 28 32 33 18 12 26 21 30 35 66 72 71 69 63
18 12 21 9 23 37 22 28 42 21 23 13 16 32 20 13 17 17 17 8 8 6 11 4 5 4 5 5 7 9 19 22 36 36 33 26 25 11 43 43 45 61 75 77 75
55 31 19 22 19 29 35 43 42 28 30 27 41 13 26 36 5 7 19 26 9 19 17 13 11 6 9 6 7 14 34 42 20 20 31 31 43 15 16 49 68 76 91 90 85
Wind_Direction_850mb
332 330 330 333 337 342 342 343 350 353 355 351 1 10 60 50 46 70 69 85 120 118 121 131 124 119 107 81 68 89 67 137 178 160 149 139 111 67 79 80 64 70 52 358 349
338 333 331 329 331 337 338 340 341 350 352 351 351 346 65 70 50 60 56 103 127 124 130 147 141 133 81 61 35 63 86 178 175 156 147 138 111 123 113 68 62 56 18 357 353
341 335 332 328 325 328 333 338 332 343 347 350 348 351 344 107 107 19 27 68 139 139 131 152 150 128 74 46 25 41 125 167 96 122 129 123 104 101 122 48 67 13 358 356 354
344 338 331 328 322 323 323 331 328 332 340 346 351 342 339 142 182 355 28 118 146 157 145 144 149 105 71 74 57 92 66 112 136 103 104 106 121 93 113 128 126 33 359 352 358
341 340 332 327 321 319 319 322 322 323 331 329 346 345 351 122 78 28 62 139 155 164 169 163 157 121 107 106 91 79 125 94 130 116 105 123 109 129 119 136 133 6 357 5 0
332 333 333 327 324 319 317 317 316 319 323 328 331 351 322 163 44 50 65 120 163 166 169 173 152 120 99 76 79 120 111 109 118 133 130 122 136 68 171 167 200 356 7 7 1
321 326 331 329 324 321 318 316 313 312 319 326 321 342 81 162 159 106 91 116 128 126 131 123 125 126 109 97 112 114 82 82 67 135 135 142 142 144 170 193 317 0 5 4 2
313 316 324 327 326 325 321 317 313 308 312 325 308 347 132 155 130 117 116 110 124 127 122 113 107 102 90 121 80 76 67 124 244 154 159 152 246 176 188 222 322 4 5 0 3
310 305 315 321 332 337 326 320 310 311 301 318 276 171 137 156 152 135 143 130 124 128 119 114 108 89 117 99 61 11 167 156 198 180 153 165 235 177 175 189 15 10 6 4 2
308 302 300 311 320 342 336 326 304 295 287 278 205 176 168 188 151 141 141 148 133 129 117 110 81 81 50 86 200 186 168 165 184 200 168 194 233 188 178 161 33 11 9 8 9
292 292 293 301 308 318 324 343 320 279 291 214 152 148 139 163 161 150 156 147 138 128 89 33 86 177 186 149 114 125 120 135 162 193 179 220 235 204 180 130 35 17 12 10 11
280 279 283 293 293 307 331 346 317 281 302 249 218 192 156 164 143 158 167 169 140 117 102 36 145 149 107 91 100 92 112 112 15 10 229 306 264 194 179 164 64 26 19 13 10
274 267 271 283 287 292 309 309 294 297 270 238 212 196 159 178 178 152 179 146 94 104 34 142 156 148 111 120 105 49 143 172 149 99 43 342 285 152 189 149 120 44 30 24 19
268 261 259 264 279 266 227 239 251 352 41 239 191 212 171 162 78 135 149 149 49 140 114 86 161 139 117 138 122 165 165 123 122 108 222 33 277 225 193 191 187 41 30 26 25
281 260 248 242 239 216 179 168 160 73 282 23 109 148 130 149 131 58 128 116 118 115 125 183 149 138 127 112 5 160 128 104 87 91 51 93 79 269 133 222 207 140 53 40 38
275 263 244 233 225 210 165 146 117 43 243 204 104 135 92 44 58 107 101 87 109 91 40 87 79 58 126 82 71 144 82 56 58 88 27 129 136 262 189 197 148 159 100 57 55
270 260 244 235 228 195 164 141 68 231 348 241 173 160 117 140 101 77 129 113 126 94 177 21 2 58 134 84 4 82 110 344 347 13 220 152 75 255 190 174 155 160 134 88 74
278 254 236 232 208 184 165 77 192 233 212 143 121 114 177 156 316 127 130 165 93 109 126 154 258 179 181 204 176 183 192 167 208 207 228 130 230 263 150 140 139 145 135 116 100
310 233 222 223 194 178 163 199 206 199 151 151 71 130 201 187 157 128 195 205 172 178 175 152 167 346 34 115 160 184 199 134 104 29 48 213 266 259 131 151 159 160 157 144 123
240 214 209 209 186 180 125 263 228 191 130 149 189 151 171 186 154 181 182 201 195 166 137 217 103 317 226 64 20 188 152 88 8 176 252 268 273 228 196 195 186 180 179 165 150
226 199 215 197 178 160 190 222 250 208 159 163 206 148 186 179 175 186 195 259 136 144 162 164 173 138 139 204 181 153 193 185 146 168 179 225 256 207 194 187 183 187 183 174 166
220 198 182 179 148 192 192 176 246 183 186 142 160 164 175 164 167 215 211 228 161 150 174 208 110 165 203 279 230 195 196 178 146 212 235 157 270 329 211 182 178 183 184 179 173
213 152 170 176 177 205 144 259 229 171 182 185 184 189 145 173 201 195 180 88 168 174 168 186 209 87 2 358 334 220 196 182 129 106 204 151 255 27 118 156 181 179 184 186 181
203 153 164 204 233 204 168 179 205 211 196 181 152 147 133 174 271 168 149 82 156 195 301 134 174 183 195 169 135 198 196 183 167 164 169 220 214 217 186 182 183 188 186 189 189
221 203 183 186 224 222 178 174 187 197 189 195 226 219 161 163 162 173 130 124 49 170 178 180 220 179 235 160 174 196 180 192 206 218 204 198 218 208 194 194 196 191 189 191 194
213 185 183 239 191 197 201 205 193 176 159 209 224 196 184 186 199 182 138 172 182 162 178 192 220 100 297 326 250 250 236 201 215 230 245 243 256 182 204 190 183 189 192 196 196
234 218 198 197 176 186 210 210 207 159 208 198 206 126 193 221 136 156 125 157 169 171 178 155 142 118 262 5 330 289 226 211 203 210 210 218 232 168 176 183 192 193 198 200 199